Location: Normandy Village
(37.8755°N, 122.2655°W)
Time: 02:02:02
(UTC+00:00)

Cosmos 1862 Rocket - Pass Details

Date: 22 September 2019
Orbit: 603 x 635 km, 82.5° (Epoch: 21 October)

Event Time Altitude Azimuth Distance (km) Brightness Sun altitude
Exits shadow 12:06:39 36° 320° (NW) 1,001 4.4 -22.2°
Drops below altitude 10° 12:09:49 10° 354° (N) 2,027 6.3 -21.6°
Sets 12:12:10 0° 1° (N) 2,939 7.3 -21.1°
